Andalusia, AL

11:09 PM CST on November 21, 2019 (GMT -0600)
Andalusia

Weather History for K79J - October, 2019

Change the Weather History Date:

Sunday, October 20, 2019

  Actual Average (KCEW) Record (KCEW)
Temperature  
Mean Temperature 73 °F -  
Max Temperature 82 °F 78 °F 90 °F (2016)
Min Temperature 63 °F 47 °F 31 °F (1989)
Cooling Degree Days 8    
Growing Degree Days 23 (Base 50)    
Moisture  
Dew Point 60 °F    
Average Humidity 75    
Maximum Humidity 87    
Minimum Humidity 45    
Precipitation  
Precipitation 0.00 in - - ()
Sea Level Pressure  
Sea Level Pressure 29.91 in    
Wind  
Wind Speed 3 mph ()    
Max Wind Speed 7 mph    
Max Gust Speed -    
Visibility 9.9 miles    
Events      
Averages and records for this station are not official NWS values.
T = Trace of Precipitation, MM = Missing Value Source: Averaged Metar Reports

Daily Weather History Graph

Daily Weather History Graph

Search for Another Location

Airport or City:

Astronomy

Oct. 20, 2019 Rise Set
Actual Time 6:51 AM CDT 6:08 PM CDT
Civil Twilight 6:27 AM CDT 6:32 PM CDT
Nautical Twilight 5:58 AM CDT 7:01 PM CDT
Astronomical Twilight 5:30 AM CDT 7:29 PM CDT
Moon 11:31 PM CDT (10/20) 1:04 PM CDT (10/20)
Length of Visible Light 12h 05m
Length of Day
11h 16m
Waning Gibbous, 59% of the Moon is Illuminated
Oct 20
Waning Gibbous
Oct 21
Last Quarter
Oct 27
New
Nov 4
First Quarter
Nov 12
Full

Hourly Weather History & Observations

Time (CDT) Temp. Heat Index Dew Point Humidity Pressure Visibility Wind Dir Wind Speed Gust Speed Precip Events Conditions
12:38 AM 64.0 °F - 57.9 °F 80% 29.81 in 10.0 mi West 4.6 mph - N/A   Overcast
12:56 AM 64.0 °F - 57.9 °F 80% 29.81 in 10.0 mi Calm Calm - N/A   Overcast
1:25 AM 64.0 °F - 59.0 °F 84% 29.81 in 10.0 mi NW 3.5 mph - N/A   Overcast
1:56 AM 64.0 °F - 59.0 °F 84% 29.81 in 10.0 mi NW 5.8 mph - N/A   Overcast
2:34 AM 64.0 °F - 59.0 °F 84% 29.82 in 10.0 mi WNW 3.5 mph - N/A   Overcast
2:56 AM 64.0 °F - 57.9 °F 80% 29.81 in 10.0 mi NW 4.6 mph - N/A   Overcast
3:56 AM 64.0 °F - 57.9 °F 80% 29.83 in 10.0 mi NW 5.8 mph - N/A   Overcast
4:56 AM 64.9 °F - 59.0 °F 81% 29.85 in 10.0 mi NNW 5.8 mph - N/A   Overcast
5:33 AM 64.9 °F - 59.0 °F 81% 29.88 in 10.0 mi NW 5.8 mph - N/A   Overcast
5:56 AM 64.9 °F - 60.1 °F 84% 29.88 in 9.0 mi NW 4.6 mph - N/A   Overcast
6:56 AM 64.9 °F - 60.1 °F 84% 29.90 in 10.0 mi North 3.5 mph - N/A   Overcast
7:08 AM 64.9 °F - 60.1 °F 84% 29.91 in 10.0 mi North 4.6 mph - N/A   Overcast
7:46 AM 66.0 °F - 60.1 °F 81% 29.92 in 10.0 mi North 4.6 mph - N/A   Overcast
7:56 AM 66.0 °F - 60.1 °F 81% 29.92 in 10.0 mi North 6.9 mph - N/A   Overcast
8:56 AM 66.9 °F - 61.0 °F 81% 29.94 in 10.0 mi North 4.6 mph - N/A   Overcast
9:26 AM 66.9 °F - 61.0 °F 81% 29.96 in 10.0 mi NW 4.6 mph - N/A   Overcast
9:43 AM 68.0 °F - 61.0 °F 78% 29.96 in 10.0 mi WNW 4.6 mph - N/A   Overcast
9:56 AM 68.0 °F - 61.0 °F 78% 29.95 in 10.0 mi NNW 6.9 mph - N/A   Overcast
10:56 AM 70.0 °F - 61.0 °F 73% 29.96 in 10.0 mi Calm Calm - N/A   Overcast
11:17 AM 71.1 °F - 62.1 °F 73% 29.98 in 10.0 mi NNW 4.6 mph - N/A   Overcast
11:56 AM 72.0 °F - 62.1 °F 71% 29.97 in 10.0 mi West 4.6 mph - N/A   Overcast
12:41 PM 75.0 °F - 62.1 °F 64% 29.96 in 10.0 mi Variable 3.5 mph - N/A   Mostly Cloudy
12:56 PM 75.9 °F - 62.1 °F 62% 29.94 in 10.0 mi Variable 3.5 mph - N/A   Mostly Cloudy
1:15 PM 77.0 °F - 62.1 °F 60% 29.94 in 10.0 mi Variable 3.5 mph - N/A   Scattered Clouds
1:56 PM 79.0 °F - 61.0 °F 54% 29.92 in 10.0 mi NW 4.6 mph - N/A   Clear
2:56 PM 81.0 °F 81.7 °F 61.0 °F 50% 29.91 in 10.0 mi Variable 3.5 mph - N/A   Clear
3:56 PM 82.0 °F 82.1 °F 59.0 °F 45% 29.91 in 10.0 mi West 5.8 mph - N/A   Clear
4:56 PM 81.0 °F 81.6 °F 60.1 °F 49% 29.91 in 10.0 mi NW 4.6 mph - N/A   Clear
5:56 PM 75.0 °F - 62.1 °F 64% 29.91 in 10.0 mi Calm Calm - N/A   Clear
6:56 PM 70.0 °F - 62.1 °F 76% 29.92 in 10.0 mi Calm Calm - N/A   Clear
7:56 PM 66.9 °F - 62.1 °F 84% 29.94 in 10.0 mi Calm Calm - N/A   Clear
8:56 PM 66.0 °F - 62.1 °F 87% 29.95 in 10.0 mi Calm Calm - N/A   Clear
9:56 PM 64.9 °F - 60.1 °F 84% 29.96 in 10.0 mi Calm Calm - N/A   Clear
10:56 PM 64.0 °F - 60.1 °F 87% 29.96 in 10.0 mi Calm Calm - N/A   Clear
11:56 PM 63.0 °F - 59.0 °F 87% 29.95 in 7.0 mi Calm Calm - N/A   Clear